S-Net D
1 43186U 18014G 20310.70028317 .00000777 00000-0 72646-4 0 9990
2 43186 097.6851 216.1649 0012677 108.3355 251.9247 14.96882381150823
S-Net B
1 43187U 18014H 20310.63328803 .00000780 00000-0 72939-4 0 9995
2 43187 097.6848 216.0732 0012669 108.5512 251.7087 14.96881864150814
S-Net A
1 43188U 18014J 20310.70001846 .00000782 00000-0 73131-4 0 9996
2 43188 097.6851 216.1739 0012649 108.3992 251.8606 14.96881773150823
S-Net C
1 43189U 18014K 20310.70050137 .00000759 00000-0 71120-4 0 9994
2 43189 97.6848 216.1334 0012633 108.2488 252.0109 14.96881229149378
FMN 1
1 43192U 18015A 20310.78519464 .00003581 00000-0 14086-3 0 9993
2 43192 97.4613 79.8019 0014515 315.3781 150.6474 15.26224917153453
Shaonian Xing
1 43199U 18015H 20310.84419412 .00002618 00000-0 10372-3 0 9993
2 43199 97.4412 77.7492 0015823 325.7532 185.3783 15.26220950153520
UBAKUSAT
1 43467U 98067NQ 20310.76261842 .00103021 00000-0 35964-3 0 9993
2 43467 51.6316 269.4170 0003354 101.4262 258.7120 15.88506697142454
EQUISat
1 43552U 98067PA 20310.73740549 .00107223 00000-0 39256-3 0 9997
2 43552 51.6281 277.5868 0001745 62.1056 298.0125 15.87535458132536
UiTMSat 1
1 43589U 98067PD 20310.82178893 .00367100 70681-4 59519-3 0 9996
2 43589 051.6277 268.8497 0004011 105.8447 254.3006 16.02841161128391
Maya 1
1 43590U 98067PE 20310.18958824 .00346360 63607-4 57770-3 0 9999
2 43590 51.6216 272.0468 0004219 104.6265 255.5214 16.02369695128229
Bhutan 1
1 43591U 98067PF 20310.25852108 .00372071 73121-4 57399-3 0 9993
2 43591 51.6273 271.1760 0004239 106.9443 253.2033 16.03668128128243
SiriusSat 1
1 43595U 98067PG 20310.47886286 .00071195 13036-4 23108-3 0 9998
2 43595 51.6316 280.1119 0002485 75.1872 284.9507 15.90971420127329
SiriusSat 2
1 43596U 98067PH 20310.48641665 .00136188 17974-4 43069-3 0 9997
2 43596 051.6230 280.9844 0003887 085.7312 274.4339 15.91029190127316
SurfSat
1 43614U 18070B 20310.71618570 .00003730 00000-0 93382-4 0 9997
2 43614 093.0291 213.0943 0016467 141.7532 218.4895 15.39999707120215
CP-7 DAVE
1 43615U 18070C 20310.69767969 .00003521 00000-0 88708-4 0 9996
2 43615 093.0292 213.0675 0016626 141.6120 218.6321 15.39808191120209
ELFIN-B
1 43616U 18070D 20310.66523465 .00005329 00000-0 12666-3 0 9992
2 43616 093.0251 213.0514 0016819 141.9231 218.3217 15.41542053120269
ELFIN-A
1 43617U 18070E 20310.67835783 .00005359 00000-0 12632-3 0 9999
2 43617 093.0307 213.6904 0016412 138.5214 221.7291 15.41802032120270
STARS-Me Mother
1 43640U 98067PQ 20310.49984565 .00022281 00000-0 18317-3 0 9991
2 43640 051.6342 310.7135 0001817 182.0112 178.0879 15.70338426118854
CubeBel 1
1 43666U 18083E 20310.79789948 .00001591 00000-0 80207-4 0 9999
2 43666 097.4788 335.8131 0013545 223.6080 251.6304 15.18544742112065
Changshagaoxin
1 43669U 18083H 20310.82965065 .00001092 00000-0 57769-4 0 9995
2 43669 97.4672 333.6048 0009793 214.8256 318.5430 15.17513258111968
Ten-Koh
1 43677U 18084G 20310.82206949 .00000254 00000-0 31991-4 0 9992
2 43677 097.8982 067.6722 0017109 055.3234 304.9593 14.90339329109996
PO-101
1 43678U 18084H 20310.81446236 -.00000193 00000-0 -13467-4 0 9999
2 43678 97.9006 69.3456 0011311 72.3467 287.8997 14.91663042110097
IRVINE 01
1 43693U 18088D 20310.54323395 .00002949 00000-0 12114-3 0 9996
2 43693 085.0345 343.5837 0019498 127.3078 232.9945 15.23553807110324
QO-100
1 43700U 18090A 20310.30049264 .00000156 00000-0 00000-0 0 9998
2 43700 000.0133 267.7745 0002132 342.1473 289.0881 01.00273445007125
Reaktor Hello World
1 43743U 18096AA 20310.65922451 .00001722 00000-0 66024-4 0 9999
2 43743 097.4096 023.7527 0017425 354.2846 005.8192 15.27772221107958
MinXSS-2
1 43758U 18099A 20310.62270390 .00000837 00000-0 80048-4 0 9991
2 43758 097.6939 020.1689 0017118 079.2889 281.0258 14.95779026105056
AO-95
1 43770U 18099N 20310.46270077 .00000453 00000-0 46488-4 0 9993
2 43770 097.6927 019.2903 0015993 087.4126 272.8925 14.95081859104989
RANGE-B
1 43772U 18099Q 20310.66464521 .00000642 00000-0 63336-4 0 9997
2 43772 97.6998 20.1663 0015438 75.2390 285.0541 14.95304153105015
RANGE-A
1 43773U 18099R 20310.65721014 .00000204 00000-0 23800-4 0 9996
2 43773 097.6864 019.0098 0014895 075.0109 285.2759 14.95036492105009
MOVE-II
1 43780U 18099Y 20310.70534493 .00000340 00000-0 35730-4 0 9999
2 43780 097.6937 019.8416 0014914 083.9380 276.3540 14.95549494105023
SNUSat 2
1 43782U 18099AA 20310.66673213 .00000538 00000-0 53884-4 0 9999
2 43782 097.6923 019.7528 0014077 074.7484 285.5292 14.95342103105020
SnugLite
1 43784U 18099AC 20310.62549980 .00000559 00000-0 55564-4 0 9990
2 43784 097.6890 019.4989 0016629 081.2943 279.0161 14.95452374105037
ITASat 1
1 43786U 18099AE 20310.62895942 .00000400 00000-0 41301-4 0 9993
2 43786 097.6946 019.9737 0016730 080.4769 279.8342 14.95411910105037
EAGLET 1
1 43790U 18099AJ 20310.65199097 -.00000016 00000-0 37050-5 0 9990
2 43790 097.6933 020.3137 0014841 084.2475 276.0438 14.95790004104752
ESEO
1 43792U 18099AL 20310.67434845 .00000499 00000-0 49993-4 0 9999
2 43792 097.6901 020.0837 0014805 081.8832 278.4068 14.95638569104812
CSIM
1 43793U 18099AM 20310.67180809 .00000977 00000-0 91650-4 0 9996
2 43793 097.6908 020.1709 0014307 080.0274 280.2561 14.96200952104807
Astrocast 0.1
1 43798U 18099AS 20310.76056909 .00000608 00000-0 59326-4 0 9999
2 43798 097.6936 020.5493 0013888 066.1050 294.1625 14.95945028105071
JO-97
1 43803U 18099AX 20310.62605283 .00000602 00000-0 59238-4 0 9992
2 43803 097.6907 019.7583 0016701 080.7919 279.5190 14.95607764105031
Suomi 100
1 43804U 18099AY 20310.62813094 .00000479 00000-0 48238-4 0 9994
2 43804 097.6903 019.7421 0016763 080.7673 279.5443 14.95591845105048
Al Farabi 2
1 43805U 18099AZ 20310.79069624 .00000114 00000-0 15343-4 0 9992
2 43805 097.6900 020.0289 0016507 080.1237 280.1833 14.95732601105070
PWSat 2
1 43814U 18099BJ 20310.51498580 .00051022 00000-0 22288-2 0 9997
2 43814 097.7929 034.9597 0002198 123.6440 236.5005 15.21928083105097
CHOMPTT
1 43855U 18104G 20310.82411793 .00001687 00000-0 69387-4 0 9999
2 43855 085.0367 081.6479 0015366 248.6748 111.2854 15.23233310105046
ISAT
1 43879U 18111D 20310.93566818 -.00000033 00000-0 21621-5 0 9999
2 43879 097.6912 216.0090 0013795 126.0845 234.1660 14.96344740099626
UWE-4
1 43880U 18111E 20310.69222581 .00001029 00000-0 95319-4 0 9999
2 43880 097.6941 216.1180 0013538 128.3828 231.8612 14.96594130101616
Sparrow
1 43881U 18111F 20310.67048869 .00000347 00000-0 35459-4 0 9994
2 43881 097.6941 216.1896 0013415 127.1322 233.1127 14.96635372101611
Lume 1
1 43908U 18111AJ 20310.69790702 .00001751 00000-0 71837-4 0 9996
2 43908 97.2506 206.3685 0021407 8.6219 351.5383 15.25348336103557
FO-98
1 43933U 19003B 20310.65781569 .00000969 00000-0 44738-4 0 9992
2 43933 097.2130 354.8669 0019475 103.3448 256.9962 15.22322804100016
FO-99
1 43937U 19003F 20310.67487324 .00001802 00000-0 74918-4 0 9990
2 43937 97.2093 356.5394 0025547 85.7700 274.6457 15.24744786100153
Delphini 1
1 44030U 98067PW 20310.27631801 .00041820 00000-0 29567-3 0 9992
2 44030 051.6318 316.6978 0001525 338.0867 022.0066 15.73571504100628
MYSat 1
1 44045U 18092F 20310.60661091 .00003880 00000-0 11416-3 0 9997
2 44045 51.6393 76.5505 0011493 114.4302 245.7882 15.37510091 96998
AstroCast 0.2
1 44083U 19018F 20310.66962973 .00001025 00000-0 48089-4 0 9993
2 44083 97.4049 9.6481 0014129 43.0811 317.1528 15.21825663 88851
